Sateliot-2

operational
NORAD ID: 60534 Int'l Des: 2024-149 Owner: STIOT Country: E
LEOCIRCULARRETROGRADESSO

关于 Sateliot-2

正在加载描述...

实时位置

正在加载3D地球...

即将过境

高度历史

Altitude vs Time

uPlot chart will show altitude changes over time

两行轨道根数

1 60534U 24149BU 26062.08891654 .00003110 00000-0 28307-3 0 9993
2 60534 97.6904 138.9822 0002082 97.3926 262.7532 14.95901028 84105
Epoch: Mar 3, 2026 • Age: 31 hours

当前状态

高度 583.0 km
速度 7.57 km/s
星下点 -2.13°S, 126.93°W
发射日期 Aug 16, 2024
运行时间 1.5 years
类型 other

技术详情

分类 Payload
质量 7.41 kg
干质量 7.41 kg
总质量 7.41 kg
长度 0.30 m
直径 0.20 m
跨度 0.40 m
形状 Box + 2 pan
制造商 ENDUR
平台类型 Cubesat 6U
阶段状态 In Orbit
所有者/国家 STIOT/E

大型星座

Loading constellations...